Simultaneous Nadir Overpasses (SNOs) Predictions

Prediction of SNOs between AQUA and METOP-A Satellite Orbit:

Table of predicted SNOs for the next 14.0 days since TLE Epoch: 3/10/2017
Index Date (AQUA) Time (AQUA) Lat,Lon (AQUA) SZA (AQUA ) Date (METOP-A) Time (METOP-A) Lat,Lon (METOP-A) SZA (METOP-A ) Distance(km) Time Diff (sec)
1 03/11/2017 01:49:00 -73.53, -32.38 102.72 03/11/2017 01:47:49 -73.48, -33.76 102.71 44.25 71
2 03/11/2017 02:38:34 73.87, 134.52 77.64 03/11/2017 02:38:21 73.87, 134.48 77.63 1.55 13
3 03/11/2017 03:28:01 -73.94, -57.98 102.31 03/11/2017 03:29:01 -73.95, -57.99 102.31 1.55 60
4 03/13/2017 21:23:21 -73.62, 33.85 103.74 03/13/2017 21:22:10 -73.55, 32.81 103.75 33.55 71
5 03/13/2017 22:12:53 73.87,-159.05 76.51 03/13/2017 22:12:43 73.89,-159.07 76.54 2.12 10
6 03/13/2017 23:02:20 -73.92, 8.47 103.44 03/13/2017 23:03:24 -73.93, 8.36 103.45 3.33 64
7 03/16/2017 16:57:42 -73.77, 99.95 104.70 03/16/2017 16:56:29 -73.68, 99.50 104.76 17.64 73
8 03/16/2017 17:47:12 73.92, -92.74 75.45 03/16/2017 17:47:04 73.90, -92.62 75.43 3.96 8
9 03/16/2017 18:36:39 -73.97, 74.79 104.51 03/16/2017 18:37:45 -73.95, 74.82 104.54 2.29 66
10 03/19/2017 12:32:02 -73.82, 166.26 105.77 03/19/2017 12:30:49 -73.79, 166.19 105.78 3.86 73
11 03/19/2017 13:21:30 73.87, -26.21 74.28 03/19/2017 13:21:27 73.87, -26.30 74.28 2.77 3
12 03/19/2017 14:10:58 -73.97, 141.21 105.63 03/19/2017 14:12:07 -73.97, 141.28 105.65 1.98 69
13 03/22/2017 08:06:21 -73.83,-127.33 106.88 03/22/2017 08:05:11 -73.81,-127.36 106.88 2.14 70
14 03/22/2017 08:55:49 73.88, 40.19 73.17 03/22/2017 08:55:49 73.88, 40.14 73.17 1.57 0




NCC Satellite Simultaneous Nadir Overpasses (SNOs) Prediction Service
